STARLINK-1908 (46747 NORAD) Tracking and Keplerian Element Data

This shows tracking and keplerian element data for the satellite.

Feedback or suggestion? Click here.




ElementValue
Catalog46747
NameSTARLINK-1908
Epoch Orbit181
Epoch Day20.91667824
Epoch Year2021
RAAN93.2994
Inclination53.0585
Eccentricity0.0001378
Argument of Perigee80.7814
Mean Anonmoly334.1499
Mean Motion15.06395414
Decay Rate-6.56E-06
L11 46747U 20074J 21020.91667824 -.00000656 00000-0 -25186-4 0 9994
L22 46747 53.0585 93.2994 0001378 80.7814 334.1499 15.06395414 1810

Live tracking and technical data element details for STARLINK-1908 (NORAD 46747). STARLINK-1908 can be tracked NOW for your location showing map with azimuth and elevation plus other details from your city location.

Track the satellite on the map from your city or location and see movement details for azimuth, elevation, latitude, longitude, range, height, and movement on the map or in text.







IsCatalogInMostPopularTable: catalog: 46747, numindb: 26
Update: records affected: 1



GetName: 46747 STARLINK-1908

Hit Count: updated at: Fri, 22 Jan 2021 19:56:55 GMT